Time,TemperatureF,DewpointF,PressureIn,WindDirection,WindDirectionDegrees,WindSpeedMPH,WindSpeedGustMPH,Humidity,HourlyPrecipIn,Conditions,Clouds,dailyrainin,SoftwareType,DateUTC
2014-04-23 00:01:00,44.0,31.8,28.42,West,270,0.0,8.0,62,0.00,,,0.00,Weather View 32 v70,2014-04-23 07:01:00,
2014-04-23 00:06:00,43.0,31.2,28.42,SW,225,0.0,8.0,63,0.00,,,0.00,Weather View 32 v70,2014-04-23 07:06:00,
2014-04-23 00:11:00,43.0,31.6,28.42,SW,225,0.0,8.0,64,0.00,,,0.00,Weather View 32 v70,2014-04-23 07:11:00,
2014-04-23 00:16:00,43.0,31.2,28.42,West,270,0.0,8.0,63,0.00,,,0.00,Weather View 32 v70,2014-04-23 07:16:00,
2014-04-23 00:21:00,43.0,31.2,28.42,West,270,0.0,8.0,63,0.00,,,0.00,Weather View 32 v70,2014-04-23 07:21:00,
2014-04-23 00:26:00,43.0,31.2,28.42,SW,225,2.0,8.0,63,0.00,,,0.00,Weather View 32 v70,2014-04-23 07:26:00,
2014-04-23 00:31:00,43.0,31.2,28.42,SW,225,3.0,8.0,63,0.00,,,0.00,Weather View 32 v70,2014-04-23 07:31:00,
2014-04-23 00:36:00,43.0,32.4,28.42,SE,135,0.0,8.0,66,0.00,,,0.00,Weather View 32 v70,2014-04-23 07:36:00,
2014-04-23 00:41:00,43.0,32.8,28.42,SE,135,3.0,8.0,67,0.00,,,0.00,Weather View 32 v70,2014-04-23 07:41:00,
2014-04-23 00:46:00,43.0,33.5,28.43,SW,225,1.0,6.0,69,0.00,,,0.00,Weather View 32 v70,2014-04-23 07:46:00,
2014-04-23 00:51:00,43.0,33.5,28.43,SSW,202,1.0,6.0,69,0.00,,,0.00,Weather View 32 v70,2014-04-23 07:51:00,
2014-04-23 00:56:00,43.0,33.9,28.42,SSE,157,3.0,6.0,70,0.00,,,0.00,Weather View 32 v70,2014-04-23 07:56:00,
2014-04-23 01:01:00,44.0,34.5,28.42,SW,225,6.0,9.0,69,0.00,,,0.00,Weather View 32 v70,2014-04-23 08:01:00,
2014-04-23 01:06:00,44.0,34.1,28.42,SW,225,5.0,9.0,68,0.00,,,0.00,Weather View 32 v70,2014-04-23 08:06:00,
2014-04-23 01:11:00,44.0,34.1,28.42,SW,225,7.0,9.0,68,0.00,,,0.00,Weather View 32 v70,2014-04-23 08:11:00,
2014-04-23 01:16:00,45.0,35.1,28.41,SW,225,6.0,10.0,68,0.00,,,0.00,Weather View 32 v70,2014-04-23 08:16:00,
2014-04-23 01:21:00,45.0,35.1,28.41,SW,225,7.0,11.0,68,0.00,,,0.00,Weather View 32 v70,2014-04-23 08:21:00,
2014-04-23 01:26:00,45.0,35.1,28.42,South,180,6.0,12.0,68,0.00,,,0.00,Weather View 32 v70,2014-04-23 08:26:00,
2014-04-23 01:31:00,44.0,34.8,28.42,ESE,112,3.0,12.0,70,0.00,,,0.00,Weather View 32 v70,2014-04-23 08:31:00,
2014-04-23 01:37:00,44.0,35.5,28.42,SSW,202,7.0,12.0,72,0.00,,,0.00,Weather View 32 v70,2014-04-23 08:37:00,
2014-04-23 01:42:00,43.0,34.6,28.42,SSW,202,3.0,12.0,72,0.00,,,0.00,Weather View 32 v70,2014-04-23 08:42:00,
2014-04-23 01:47:00,43.0,34.9,28.42,SW,225,1.0,12.0,73,0.00,,,0.00,Weather View 32 v70,2014-04-23 08:47:00,
2014-04-23 01:52:00,43.0,34.9,28.42,SE,135,6.0,12.0,73,0.00,,,0.00,Weather View 32 v70,2014-04-23 08:52:00,
2014-04-23 01:57:00,43.0,34.9,28.43,East,90,3.0,12.0,73,0.00,,,0.00,Weather View 32 v70,2014-04-23 08:57:00,
2014-04-23 02:02:00,42.0,34.0,28.43,South,180,5.0,12.0,73,0.00,,,0.00,Weather View 32 v70,2014-04-23 09:02:00,
2014-04-23 02:07:00,42.0,34.3,28.43,SSW,202,6.0,12.0,74,0.00,,,0.00,Weather View 32 v70,2014-04-23 09:07:00,
2014-04-23 02:12:00,42.0,34.3,28.43,SSW,202,6.0,12.0,74,0.00,,,0.00,Weather View 32 v70,2014-04-23 09:12:00,
2014-04-23 02:17:00,42.0,34.6,28.43,South,180,6.0,12.0,75,0.00,,,0.00,Weather View 32 v70,2014-04-23 09:17:00,
2014-04-23 02:22:00,42.0,35.0,28.43,SSW,202,5.0,12.0,76,0.00,,,0.00,Weather View 32 v70,2014-04-23 09:22:00,
2014-04-23 02:27:00,42.0,35.0,28.43,SE,135,2.0,12.0,76,0.00,,,0.00,Weather View 32 v70,2014-04-23 09:27:00,
2014-04-23 02:32:00,42.0,35.0,28.43,SW,225,3.0,12.0,76,0.00,,,0.00,Weather View 32 v70,2014-04-23 09:32:00,
2014-04-23 02:37:00,42.0,34.6,28.42,South,180,2.0,12.0,75,0.00,,,0.00,Weather View 32 v70,2014-04-23 09:37:00,
2014-04-23 02:42:00,42.0,34.3,28.42,South,180,7.0,12.0,74,0.00,,,0.00,Weather View 32 v70,2014-04-23 09:42:00,
2014-04-23 02:47:00,43.0,34.9,28.42,South,180,1.0,12.0,73,0.00,,,0.00,Weather View 32 v70,2014-04-23 09:47:00,
2014-04-23 02:52:00,43.0,35.3,28.42,SSE,157,3.0,12.0,74,0.00,,,0.00,Weather View 32 v70,2014-04-23 09:52:00,
2014-04-23 02:57:00,43.0,35.3,28.42,SE,135,3.0,12.0,74,0.00,,,0.00,Weather View 32 v70,2014-04-23 09:57:00,
2014-04-23 03:02:00,43.0,35.3,28.42,WNW,292,5.0,12.0,74,0.00,,,0.00,Weather View 32 v70,2014-04-23 10:02:00,
2014-04-23 03:07:00,43.0,35.6,28.42,ESE,112,6.0,12.0,75,0.00,,,0.00,Weather View 32 v70,2014-04-23 10:07:00,
2014-04-23 03:12:00,43.0,35.6,28.42,SE,135,5.0,11.0,75,0.00,,,0.00,Weather View 32 v70,2014-04-23 10:12:00,
2014-04-23 03:17:00,43.0,35.6,28.42,SW,225,1.0,11.0,75,0.00,,,0.00,Weather View 32 v70,2014-04-23 10:17:00,
2014-04-23 03:22:00,43.0,35.9,28.42,SSE,157,1.0,11.0,76,0.00,,,0.00,Weather View 32 v70,2014-04-23 10:22:00,
2014-04-23 03:27:00,43.0,35.9,28.42,South,180,1.0,11.0,76,0.00,,,0.00,Weather View 32 v70,2014-04-23 10:27:00,
2014-04-23 03:32:00,43.0,35.9,28.42,SSE,157,1.0,11.0,76,0.00,,,0.00,Weather View 32 v70,2014-04-23 10:32:00,
2014-04-23 03:37:00,43.0,35.9,28.42,North,360,1.0,11.0,76,0.00,,,0.00,Weather View 32 v70,2014-04-23 10:37:00,
2014-04-23 03:42:00,43.0,36.3,28.42,SE,135,5.0,11.0,77,0.00,,,0.00,Weather View 32 v70,2014-04-23 10:42:00,
2014-04-23 03:47:00,42.0,35.3,28.42,SE,135,1.0,11.0,77,0.00,,,0.00,Weather View 32 v70,2014-04-23 10:47:00,
2014-04-23 03:52:00,42.0,35.3,28.42,South,180,0.0,11.0,77,0.00,,,0.00,Weather View 32 v70,2014-04-23 10:52:00,
2014-04-23 03:57:00,43.0,36.3,28.42,SSW,202,3.0,11.0,77,0.00,,,0.00,Weather View 32 v70,2014-04-23 10:57:00,
2014-04-23 04:02:00,43.0,36.3,28.42,SSW,202,5.0,11.0,77,0.00,,,0.00,Weather View 32 v70,2014-04-23 11:02:00,
2014-04-23 04:07:00,43.0,36.3,28.42,SW,225,7.0,10.0,77,0.00,,,0.00,Weather View 32 v70,2014-04-23 11:07:00,
2014-04-23 04:12:00,43.0,36.6,28.42,SW,225,4.0,10.0,78,0.00,,,0.00,Weather View 32 v70,2014-04-23 11:12:00,
2014-04-23 04:17:00,43.0,36.6,28.42,SW,225,5.0,10.0,78,0.00,,,0.00,Weather View 32 v70,2014-04-23 11:17:00,
2014-04-23 04:22:00,43.0,36.6,28.42,South,180,0.0,10.0,78,0.00,,,0.00,Weather View 32 v70,2014-04-23 11:22:00,
2014-04-23 04:27:00,43.0,36.6,28.42,South,180,0.0,10.0,78,0.00,,,0.00,Weather View 32 v70,2014-04-23 11:27:00,
2014-04-23 04:32:00,43.0,36.6,28.42,South,180,3.0,10.0,78,0.00,,,0.00,Weather View 32 v70,2014-04-23 11:32:00,
2014-04-23 04:37:00,43.0,36.6,28.42,South,180,2.0,9.0,78,0.00,,,0.00,Weather View 32 v70,2014-04-23 11:37:00,
2014-04-23 04:42:00,43.0,36.6,28.42,South,180,2.0,9.0,78,0.00,,,0.00,Weather View 32 v70,2014-04-23 11:42:00,
2014-04-23 04:47:00,43.0,36.6,28.42,South,180,4.0,8.0,78,0.00,,,0.00,Weather View 32 v70,2014-04-23 11:47:00,
2014-04-23 04:52:00,43.0,36.6,28.42,South,180,0.0,8.0,78,0.00,,,0.00,Weather View 32 v70,2014-04-23 11:52:00,
2014-04-23 04:57:00,43.0,36.6,28.42,SSW,202,6.0,9.0,78,0.00,,,0.00,Weather View 32 v70,2014-04-23 11:57:00,
2014-04-23 05:02:00,43.0,36.6,28.42,SW,225,3.0,9.0,78,0.00,,,0.00,Weather View 32 v70,2014-04-23 12:02:00,
2014-04-23 05:07:00,43.0,36.6,28.42,SW,225,7.0,9.0,78,0.00,,,0.00,Weather View 32 v70,2014-04-23 12:07:00,
2014-04-23 05:13:00,43.0,36.3,28.42,SW,225,6.0,9.0,77,0.00,,,0.00,Weather View 32 v70,2014-04-23 12:13:00,
2014-04-23 05:18:00,43.0,36.3,28.41,SSW,202,7.0,9.0,77,0.00,,,0.00,Weather View 32 v70,2014-04-23 12:18:00,
2014-04-23 05:23:00,44.0,36.9,28.41,SW,225,9.0,10.0,76,0.00,,,0.00,Weather View 32 v70,2014-04-23 12:23:00,
2014-04-23 05:28:00,44.0,36.9,28.41,SW,225,6.0,10.0,76,0.00,,,0.00,Weather View 32 v70,2014-04-23 12:28:00,
2014-04-23 05:33:00,45.0,36.9,28.40,SW,225,7.0,12.0,73,0.00,,,0.00,Weather View 32 v70,2014-04-23 12:33:00,
2014-04-23 05:38:00,45.0,36.5,28.40,SW,225,6.0,12.0,72,0.00,,,0.00,Weather View 32 v70,2014-04-23 12:38:00,
2014-04-23 05:43:00,45.0,36.5,28.40,SW,225,10.0,13.0,72,0.00,,,0.00,Weather View 32 v70,2014-04-23 12:43:00,
2014-04-23 05:48:00,45.0,36.9,28.40,South,180,2.0,13.0,73,0.00,,,0.00,Weather View 32 v70,2014-04-23 12:48:00,
2014-04-23 05:53:00,46.0,37.8,28.40,SW,225,7.0,15.0,73,0.00,,,0.00,Weather View 32 v70,2014-04-23 12:53:00,
2014-04-23 05:58:00,45.0,37.2,28.40,SW,225,5.0,15.0,74,0.00,,,0.00,Weather View 32 v70,2014-04-23 12:58:00,